Location: The Saddle
(36.8333°N, 80.3417°W)
Time: 22:24:30
(UTC-05:00)

Vanguard 1 Rocket - Visible Passes

Search period start: 22 January 2022 00:00
Search period end: 01 February 2022 00:00
Orbit: 651 x 4224 km, 34.3° (Epoch: 22 January)

Date Brightness Start Highest point End Pass type
(mag) Time Alt. Az. Time Alt. Az. Time Alt. Az.
22 Jan 9.2 18:42:30 10° W 18:52:53 43° SSW 18:58:42 10° SE visible
23 Jan 9.8 20:00:29 10° W 20:05:41 17° SW 20:09:33 10° S visible
24 Jan 9.7 18:45:07 10° W 18:55:13 35° SW 19:01:05 10° SSE visible
25 Jan 10.2 20:04:38 10° WSW 20:07:45 12° SW 20:10:21 10° SSW visible
26 Jan 9.9 18:47:54 10° W 18:57:23 28° SW 19:03:14 10° SSE visible
28 Jan 10.2 18:50:56 10° W 18:59:26 22° SW 19:05:02 10° S visible
30 Jan 12.3 06:30:24 10° SE 06:35:59 11° SE 06:41:48 10° ESE visible
30 Jan 10.6 18:54:27 10° W 19:01:20 17° SW 19:06:18 10° SSW visible
